EW7695 Weather Reports


Display with metric or nautical units.
time (UTC)temp
F
wind
direction
speed
MPH
gust
MPH
rain 1hr
in
rain 24hr
in
rain mn
in
humidity
%
barometer
mb
20220707144601 80 321 0.0 1.0 0.00 0.00 0.00 39 1013.6
20220707143058 77 84 0.0 1.0 0.00 0.00 0.00 41 1013.6
20220707141555 77 85 0.0 0.0 0.00 0.00 0.00 42 1013.6
20220707140050 73 85 0.0 0.0 0.00 0.00 0.00 52 1013.6
20220707134558 68 85 0.0 0.0 0.00 0.00 0.00 58 1013.6
20220707133042 64 85 0.0 0.0 0.00 0.00 0.00 62 1013.6
20220707131541 61 85 0.0 1.0 0.00 0.00 0.00 63 1013.5
20220707130039 59 82 0.0 0.0 0.00 0.00 0.00 65 1013.5
20220707124539 58 82 0.0 0.0 0.00 0.00 0.00 65 1013.1
20220707123035 58 82 0.0 0.0 0.00 0.00 0.00 64 1013.0
20220707121532 59 82 0.0 0.0 0.00 0.00 0.00 62 1012.7
20220707120026 60 82 0.0 0.0 0.00 0.00 0.00 58 1012.4
20220707114523 61 82 0.0 0.0 0.00 0.00 0.00 55 1012.0
20220707113032 62 82 0.0 0.0 0.00 0.00 0.00 53 1011.8
20220707111521 63 126 0.0 3.0 0.00 0.00 0.00 52 1011.6
20220707110019 62 94 0.0 1.0 0.00 0.00 0.00 55 1011.5
20220707104521 62 93 0.0 0.0 0.00 0.00 0.00 54 1011.6
20220707103022 62 93 0.0 0.0 0.00 0.00 0.00 54 1011.5
20220707101525 62 91 0.0 0.0 0.00 0.00 0.00 54 1011.3
20220707100018 64 91 0.0 3.0 0.00 0.00 0.00 51 1011.3
20220707094509 64 91 0.0 0.0 0.00 0.00 0.00 50 1011.2
20220707093008 65 94 0.0 1.0 0.00 0.00 0.00 48 1011.1
20220707091507 65 94 0.0 1.0 0.00 0.00 0.00 48 1011.0
20220707090005 65 87 1.0 4.0 0.00 0.00 0.00 48 1010.9
20220707084505 64 91 1.0 6.0 0.00 0.00 0.00 50 1010.8
20220707083003 64 91 0.0 2.0 0.00 0.00 0.00 52 1010.9
20220707081503 65 96 0.0 2.0 0.00 0.00 0.00 50 1010.8
20220707080059 65 103 0.0 2.0 0.00 0.00 0.00 50 1010.8
20220707074603 65 88 0.0 1.0 0.00 0.00 0.00 50 1010.7
20220707073056 65 89 0.0 1.0 0.00 0.00 0.00 49 1010.8
20220707071554 65 120 0.0 1.0 0.00 0.00 0.00 50 1010.7
20220707070051 65 97 0.0 1.0 0.00 0.00 0.00 52 1010.7
20220707064548 65 97 0.0 1.0 0.00 0.00 0.00 53 1010.4
20220707063046 65 98 0.0 0.0 0.00 0.00 0.00 54 1010.2
20220707061544 65 97 0.0 0.0 0.00 0.00 0.00 53 1010.2
20220707060140 65 97 0.0 1.0 0.00 0.00 0.00 53 1009.9
20220707054544 66 97 0.0 1.0 0.00 0.00 0.00 51 1009.6
20220707053045 67 97 0.0 0.0 0.00 0.00 0.00 48 1009.4
20220707051538 68 97 0.0 0.0 0.00 0.00 0.00 47 1009.2
20220707050040 69 97 0.0 0.0 0.00 0.00 0.00 45 1008.9
20220707044536 69 97 0.0 1.0 0.00 0.00 0.00 44 1008.8
20220707043036 69 95 0.0 0.0 0.00 0.00 0.00 45 1008.6
20220707041536 70 101 0.0 1.0 0.00 0.00 0.00 44 1008.5
20220707040036 71 101 0.0 1.0 0.00 0.00 0.00 42 1008.4
20220707034534 73 101 0.0 0.0 0.00 0.00 0.00 40 1008.0
20220707033034 74 101 0.0 0.0 0.00 0.00 0.00 37 1007.7
20220707031534 76 101 0.0 0.0 0.00 0.00 0.00 34 1007.5
20220707030034 78 101 0.0 0.0 0.00 0.00 0.00 33 1007.2
20220707024533 80 101 0.0 1.0 0.00 0.00 0.00 29 1007.3
20220707023031 82 101 0.0 1.0 0.00 0.00 0.00 28 1007.3
20220707021535 84 84 0.0 2.0 0.00 0.00 0.00 26 1007.2
20220707020035 85 102 1.0 8.0 0.00 0.00 0.00 23 1007.2
20220707014534 85 113 3.0 11.0 0.00 0.00 0.00 24 1007.3
20220707013130 85 61 4.0 8.0 0.00 0.00 0.00 24 1007.1
20220707011529 85 115 1.0 9.0 0.00 0.00 0.00 26 1007.0
20220707010027 85 114 3.0 13.0 0.00 0.00 0.00 24 1006.8
20220707004527 85 91 6.0 14.0 0.00 0.00 0.00 25 1006.7
20220707003032 86 84 7.0 14.0 0.00 0.00 0.00 25 1007.1
20220707001525 87 113 5.0 13.0 0.00 0.00 0.00 23 1007.3
20220707000030 88 97 3.0 12.0 0.00 0.00 0.00 24 1007.5
20220706234522 89 115 2.0 8.0 0.00 0.00 0.00 22 1007.7
20220706233021 90 146 0.0 3.0 0.00 0.00 0.00 24 1007.5
20220706231520 89 76 1.0 4.0 0.00 0.00 0.00 25 1007.3
20220706230018 88 86 0.0 8.0 0.00 0.00 0.00 25 1007.5
20220706224524 87 103 1.0 4.0 0.00 0.00 0.00 25 1007.8
20220706223015 83 78 1.0 5.0 0.00 0.00 0.00 29 1007.8
20220706221514 81 215 0.0 0.0 0.00 0.00 0.00 52 1007.8
20220706220020 78 94 0.0 0.0 0.00 0.00 0.00 52 1007.8
20220706214511 77 93 0.0 3.0 0.00 0.00 0.00 53 1007.6
20220706213011 80 27 0.0 3.0 0.00 0.00 0.00 51 1007.9
20220706211514 88 219 1.0 7.0 0.00 0.00 0.00 37 1008.2
20220706210008 91 229 0.0 2.0 0.00 0.00 0.00 29 1007.8
20220706204508 93 107 0.0 4.0 0.00 0.00 0.00 26 1007.6
20220706203006 95 288 0.0 1.0 0.00 0.00 0.00 27 1007.7
20220706201504 94 173 0.0 3.0 0.00 0.00 0.00 24 1007.7
20220706200001 95 104 0.0 4.0 0.00 0.00 0.00 24 1007.9
20220706194601 92 217 0.0 4.0 0.00 0.00 0.00 26 1008.1
20220706193103 93 127 1.0 3.0 0.00 0.00 0.00 25 1008.6
20220706191600 93 283 1.0 4.0 0.00 0.00 0.00 26 1008.7
20220706190059 92 6 0.0 4.0 0.00 0.00 0.00 28 1008.8
20220706184554 91 90 0.0 4.0 0.00 0.00 0.00 28 1008.9
20220706183052 91 264 1.0 9.0 0.00 0.00 0.00 30 1009.1
20220706181550 92 174 1.0 5.0 0.00 0.00 0.00 30 1009.2
20220706180050 91 205 1.0 5.0 0.00 0.00 0.00 30 1009.3
20220706174546 90 217 0.0 5.0 0.00 0.00 0.00 32 1009.4
20220706173049 89 229 0.0 3.0 0.00 0.00 0.00 34 1009.6
20220706171542 86 297 0.0 5.0 0.00 0.00 0.00 38 1009.7
20220706170033 84 335 1.0 4.0 0.00 0.00 0.00 40 1010.0
20220706164528 83 321 0.0 6.0 0.00 0.00 0.00 43 1010.2
20220706163026 81 53 0.0 3.0 0.00 0.00 0.00 45 1010.3
20220706161521 80 323 0.0 4.0 0.00 0.00 0.00 45 1010.3
20220706160029 80 290 0.0 3.0 0.00 0.00 0.00 46 1010.6
20220706154520 80 240 0.0 5.0 0.00 0.00 0.00 46 1010.6
20220706153019 79 310 0.0 5.0 0.00 0.00 0.00 47 1010.6
20220706151523 80 352 0.0 3.0 0.00 0.00 0.00 48 1010.6
20220706150019 79 315 0.0 2.0 0.00 0.00 0.00 48 1010.6